When you browse on this site, cookies collect data to enhance your experience and personalize the content and advertising you see.
Visit our Privacy Policy to learn more. By continuing to use the site, you agree to this use of cookies and data.
  • In Hungary
  • List of Countries
  • For 7 days
  • Water Temperature
  • Weather Map
  • News
  • Weather Widgets
  • user-avatar
    Login

    Hourly Weather Guben

    Today, 10 April, Friday

    Time Temperature Precipitation Wind Pressure Humidity
    00:00 +8°C° 0 mm 2 mps 765 mmHg 78%
    01:00 +9°C° 0 mm 1 mps 765 mmHg 77%
    02:00 +8°C° 0 mm 1 mps 765 mmHg 77%
    03:00 +7°C° 0 mm 1 mps 765 mmHg 77%
    04:00 +7°C° 0 mm 1 mps 765 mmHg 76%
    05:00 +7°C° 0 mm 1 mps 765 mmHg 73%
    06:00 +8°C° 0 mm 1 mps 765 mmHg 69%
    07:00 +8°C° 0 mm 1 mps 766 mmHg 65%
    08:00 +10°C° 0 mm 1 mps 766 mmHg 57%
    09:00 +12°C° 0 mm 1 mps 766 mmHg 49%
    10:00 +13°C° 0 mm 2 mps 766 mmHg 41%
    11:00 +14°C° 0 mm 2 mps 765 mmHg 39%
    12:00 +15°C° 0 mm 2 mps 765 mmHg 37%
    13:00 +15°C° 0 mm 2 mps 765 mmHg 35%
    14:00 +15°C° 0 mm 2 mps 765 mmHg 35%
    15:00 +15°C° 0 mm 2 mps 764 mmHg 36%
    16:00 +15°C° 0 mm 2 mps 764 mmHg 37%
    17:00 +14°C° 0 mm 2 mps 764 mmHg 43%
    18:00 +12°C° 0 mm 2 mps 764 mmHg 50%
    19:00 +10°C° 0 mm 1 mps 764 mmHg 56%
    20:00 +9°C° 0 mm 1 mps 764 mmHg 60%
    21:00 +8°C° 0 mm 1 mps 764 mmHg 63%
    22:00 +8°C° 0 mm 1 mps 764 mmHg 66%
    23:00 +7°C° 0 mm 1 mps 765 mmHg 69%

    Tomorrow, 11 April, Saturday

    Time Temperature Precipitation Wind Pressure Humidity
    00:00 +6°C° 0 mm 1 mps 765 mmHg 72%
    01:00 +6°C° 0 mm 1 mps 765 mmHg 75%
    02:00 +5°C° 0 mm 1 mps 765 mmHg 77%
    03:00 +5°C° 0 mm 1 mps 765 mmHg 79%
    04:00 +5°C° 0 mm 1 mps 765 mmHg 81%
    05:00 +5°C° 0 mm 1 mps 766 mmHg 78%
    06:00 +6°C° 0 mm 1 mps 766 mmHg 76%
    07:00 +7°C° 0 mm 1 mps 766 mmHg 73%
    08:00 +9°C° 0 mm 1 mps 766 mmHg 64%
    09:00 +11°C° 0 mm 1 mps 766 mmHg 55%
    10:00 +13°C° 0 mm 0 mps 766 mmHg 46%
    11:00 +14°C° 0 mm 1 mps 766 mmHg 42%
    12:00 +15°C° 0 mm 1 mps 766 mmHg 38%
    13:00 +16°C° 0 mm 1 mps 766 mmHg 34%
    14:00 +16°C° 0 mm 1 mps 765 mmHg 34%
    15:00 +16°C° 0 mm 1 mps 765 mmHg 35%
    16:00 +15°C° 0 mm 1 mps 764 mmHg 35%
    17:00 +14°C° 0 mm 1 mps 764 mmHg 41%
    18:00 +12°C° 0 mm 1 mps 764 mmHg 47%
    19:00 +10°C° 0 mm 1 mps 764 mmHg 54%
    20:00 +9°C° 0 mm 1 mps 764 mmHg 56%
    21:00 +9°C° 0 mm 1 mps 764 mmHg 58%
    22:00 +8°C° 0 mm 1 mps 764 mmHg 60%
    23:00 +8°C° 0 mm 1 mps 764 mmHg 62%

    Day after tomorrow, 12 April, Sunday

    Time Temperature Precipitation Wind Pressure Humidity
    00:00 +7°C° 0 mm 1 mps 763 mmHg 63%
    01:00 +6°C° 0 mm 0 mps 763 mmHg 65%
    02:00 +6°C° 0 mm 0 mps 763 mmHg 66%
    03:00 +7°C° 0 mm 1 mps 762 mmHg 67%
    04:00 +6°C° 0 mm 1 mps 762 mmHg 68%
    05:00 +7°C° 0 mm 1 mps 762 mmHg 67%
    06:00 +8°C° 0 mm 1 mps 761 mmHg 65%
    07:00 +9°C° 0 mm 1 mps 761 mmHg 63%
    08:00 +12°C° 0 mm 1 mps 761 mmHg 57%
    09:00 +14°C° 0 mm 2 mps 760 mmHg 51%
    10:00 +17°C° 0 mm 2 mps 760 mmHg 44%
    11:00 +18°C° 0 mm 2 mps 759 mmHg 41%
    12:00 +19°C° 0 mm 2 mps 759 mmHg 38%
    13:00 +21°C° 0 mm 3 mps 758 mmHg 35%
    14:00 +21°C° 0 mm 3 mps 757 mmHg 35%
    15:00 +21°C° 0 mm 3 mps 757 mmHg 36%
    16:00 +21°C° 0 mm 3 mps 756 mmHg 36%
    17:00 +19°C° 0 mm 2 mps 755 mmHg 44%
    18:00 +18°C° 0 mm 1 mps 755 mmHg 52%
    19:00 +14°C° 0 mm 1 mps 754 mmHg 60%
    20:00 +14°C° 0 mm 1 mps 754 mmHg 62%
    21:00 +13°C° 0 mm 1 mps 754 mmHg 65%
    22:00 +13°C° 0 mm 1 mps 754 mmHg 67%
    23:00 +12°C° 0 mm 2 mps 754 mmHg 69%

    13 April, Monday

    Time Temperature Precipitation Wind Pressure Humidity
    00:00 +12°C° 0 mm 2 mps 754 mmHg 72%
    01:00 +10°C° 0 mm 2 mps 753 mmHg 74%
    02:00 +10°C° 0 mm 2 mps 753 mmHg 76%
    03:00 +9°C° 0 mm 2 mps 753 mmHg 78%
    04:00 +10°C° 0 mm 1 mps 752 mmHg 80%
    05:00 +10°C° 0.1 mm 2 mps 752 mmHg 78%
    06:00 +12°C° 0.1 mm 2 mps 752 mmHg 77%
    07:00 +12°C° 0.1 mm 2 mps 752 mmHg 75%
    08:00 +13°C° 0.2 mm 2 mps 752 mmHg 74%
    09:00 +13°C° 0.2 mm 3 mps 752 mmHg 73%
    10:00 +14°C° 0.2 mm 3 mps 752 mmHg 72%
    11:00 +14°C° 0.2 mm 3 mps 752 mmHg 71%
    12:00 +14°C° 0.2 mm 3 mps 752 mmHg 70%
    13:00 +16°C° 0.2 mm 3 mps 752 mmHg 69%
    14:00 +13°C° 0.4 mm 4 mps 752 mmHg 73%
    15:00 +12°C° 0.4 mm 5 mps 752 mmHg 77%
    16:00 +10°C° 0.4 mm 6 mps 752 mmHg 81%
    17:00 +9°C° 0 mm 6 mps 753 mmHg 79%
    18:00 +8°C° 0 mm 6 mps 754 mmHg 77%
    19:00 +5°C° 0 mm 6 mps 755 mmHg 75%
    20:00 +5°C° 0 mm 5 mps 755 mmHg 75%
    21:00 +4°C° 0 mm 4 mps 756 mmHg 75%
    22:00 +2°C° 0 mm 3 mps 757 mmHg 76%
    23:00 +2°C° 0 mm 3 mps 758 mmHg 77%

    14 April, Tuesday

    Time Temperature Precipitation Wind Pressure Humidity
    00:00 +2°C° 0 mm 2 mps 758 mmHg 79%
    01:00 +1°C° 0 mm 2 mps 759 mmHg 81%
    02:00 +1°C° 0 mm 2 mps 759 mmHg 82%
    03:00 +1°C° 0 mm 2 mps 759 mmHg 83%
    04:00 -1°C° 0 mm 2 mps 759 mmHg 84%
    05:00 +1°C° 0 mm 2 mps 760 mmHg 78%
    06:00 +1°C° 0 mm 3 mps 760 mmHg 72%
    07:00 +1°C° 0 mm 3 mps 760 mmHg 66%
    08:00 +3°C° 0 mm 4 mps 760 mmHg 58%
    09:00 +5°C° 0 mm 4 mps 761 mmHg 50%
    10:00 +6°C° 0 mm 5 mps 761 mmHg 42%
    11:00 +7°C° 0 mm 5 mps 761 mmHg 40%
    12:00 +7°C° 0 mm 4 mps 761 mmHg 37%
    13:00 +8°C° 0 mm 4 mps 761 mmHg 35%
    14:00 +8°C° 0 mm 4 mps 760 mmHg 35%
    15:00 +9°C° 0 mm 3 mps 760 mmHg 35%
    16:00 +9°C° 0 mm 3 mps 760 mmHg 35%
    17:00 +8°C° 0 mm 2 mps 760 mmHg 40%
    18:00 +6°C° 0 mm 2 mps 760 mmHg 46%
    19:00 +6°C° 0 mm 1 mps 761 mmHg 51%
    20:00 +5°C° 0 mm 1 mps 761 mmHg 52%
    21:00 +4°C° 0 mm 1 mps 761 mmHg 52%
    22:00 +3°C° 0 mm 1 mps 762 mmHg 52%
    23:00 +2°C° 0 mm 1 mps 762 mmHg 53%

    15 April, Wednesday

    Time Temperature Precipitation Wind Pressure Humidity
    00:00 +2°C° 0 mm 1 mps 762 mmHg 55%
    01:00 +1°C° 0 mm 1 mps 762 mmHg 56%
    02:00 +1°C° 0 mm 1 mps 762 mmHg 57%
    03:00 +1°C° 0 mm 1 mps 762 mmHg 58%
    04:00 0°C° 0 mm 1 mps 762 mmHg 59%
    05:00 +2°C° 0 mm 1 mps 762 mmHg 55%
    06:00 +3°C° 0 mm 1 mps 762 mmHg 51%
    07:00 +4°C° 0 mm 1 mps 762 mmHg 47%
    08:00 +6°C° 0 mm 1 mps 762 mmHg 41%
    09:00 +9°C° 0 mm 1 mps 762 mmHg 35%
    10:00 +11°C° 0 mm 1 mps 762 mmHg 30%
    11:00 +12°C° 0 mm 2 mps 762 mmHg 28%
    12:00 +13°C° 0 mm 2 mps 761 mmHg 26%
    13:00 +13°C° 0 mm 2 mps 761 mmHg 24%
    14:00 +14°C° 0 mm 2 mps 761 mmHg 25%
    15:00 +13°C° 0 mm 3 mps 761 mmHg 26%
    16:00 +13°C° 0 mm 3 mps 760 mmHg 28%
    17:00 +11°C° 0 mm 3 mps 760 mmHg 34%
    18:00 +9°C° 0 mm 2 mps 760 mmHg 41%
    19:00 +7°C° 0 mm 2 mps 760 mmHg 48%
    20:00 +7°C° 0 mm 2 mps 760 mmHg 50%
    21:00 +6°C° 0 mm 2 mps 761 mmHg 53%
    22:00 +5°C° 0 mm 2 mps 761 mmHg 56%
    23:00 +4°C° 0 mm 2 mps 761 mmHg 58%
    Show more